Regional Weather Roundup
Issued by NWS Raleigh/Durham, NC

Home | Current Version | Previous Version | Text Only | Print | Product List | Glossary On
Versions: 1 2 3 4 5 6 7 8 9 10 11 12 13 14 15 16 17 18 19 20 21 22 23 24 25 26 27 28 29 30 31 32 33 34 35 36 37 38 39 40 41 42 43 44 45 46 47 48 49 50
000
ASUS42 KRAH 020010
RWRRAH
NORTH CAROLINA WEATHER ROUNDUP
NATIONAL WEATHER SERVICE RALEIGH NC
800 PM EDT TUE SEP 01 2015

NOTE: "FAIR" INDICATES FEW OR NO CLOUDS BELOW 12,000 FEET WITH NO
SIGNIFICANT WEATHER AND/OR OBSTRUCTIONS TO VISIBILITY.

NCZ001-053-055-056-065-067-020100-
WESTERN NORTH CAROLINA

CITY           SKY/WX    TMP DP  RH WIND       PRES   REMARKS
ASHEVILLE      CLEAR     77  66  68 S3        30.16S
JEFFERSON      MOCLDY    75  60  60 CALM      30.22S
MORGANTON      PTCLDY    78  68  71 CALM      30.15R
HICKORY        CLOUDY    83  63  50 CALM      30.09S
RUTHERFORDTON  MOCLDY    83  64  51 CALM      30.10R
MOUNT AIRY     CLEAR     82  69  65 CALM      30.12R
BOONE          PTCLDY    68  68  98 CALM      30.23S
$$

NCZ021-022-025-041-071-084-088-020100-
CENTRAL NORTH CAROLINA

CITY           SKY/WX    TMP DP  RH WIND       PRES   REMARKS
CHARLOTTE      PTCLDY    85  64  49 S7        30.07S
GREENSBORO     CLEAR     85  63  47 CALM      30.07S
WINSTON-SALEM  CLEAR     84  66  54 CALM      30.09R
RALEIGH-DURHAM MOCLDY    81  70  69 CALM      30.05S
FORT BRAGG     CLEAR     83  69  63 CALM      30.04S
FAYETTEVILLE   CLEAR     82  71  69 S3        30.04S
BURLINGTON     CLEAR     80  71  74 CALM      30.06S
LAURINBURG     CLEAR     80  71  74 SW3       30.06R
$$

NCZ011-015-027-028-043-044-047-080-103-020100-
NORTHEASTERN NORTH CAROLINA

CITY           SKY/WX    TMP DP  RH WIND       PRES   REMARKS
ROCKY MT-WILSO CLEAR     80  71  74 SE3       30.05R
GREENVILLE     CLEAR     77  73  88 CALM      30.06S
WASHINGTON     CLEAR     77  72  86 CALM      30.04R
ELIZABETH CITY CLEAR     78  72  81 SE6       30.03S
MANTEO         CLEAR     75  73  91 CALM      30.04S
CAPE HATTERAS  MOCLDY    77  72  84 CALM      30.05R
$$

NCZ078-087-090-091-093-098-101-020100-
SOUTHEASTERN NORTH CAROLINA

CITY           SKY/WX    TMP DP  RH WIND       PRES   REMARKS
LUMBERTON      CLEAR     80  75  84 CALM      30.05R
GOLDSBORO      CLEAR     80  73  78 CALM      30.04R
KINSTON        CLEAR     77  72  83 CALM      30.06R
KENANSVILLE      N/A     76  73  91 CALM      30.06R
NEW BERN       CLEAR     78  74  87 CALM      30.06R
CHERRY POINT   PTCLDY    79  71  76 SW3       30.06R
BEAUFORT       PTCLDY    79  75  87 W9        30.05R
JACKSONVILLE   CLEAR     78  73  84 S5        30.05R
WILMINGTON     PTCLDY    79  74  84 S5        30.06R
$$




USA.gov is the U.S. government's official web portal to all federal, state and local government web resources and services.